Regional Weather Roundup
Issued by NWS

Home | Current Version | Previous Version | Graphics & Text | Print | Product List | Glossary On
Versions: 1 2 3 4 5 6 7 8 9 10 11 12 13 14 15 16 17 18 19 20 21 22 23 24 25 26 27 28 29 30 31 32 33 34 35 36 37 38 39 40 41 42 43 44 45 46 47 48 49 50
000
ASUS43 KFSD 162310
RWRSD

WEATHER ROUNDUP FOR SOUTH DAKOTA
NATIONAL WEATHER SERVICE SIOUX FALLS SD
600 PM CDT WED APR 16 2014

NOTE: "FAIR" INDICATES FEW OR NO CLOUDS BELOW 12,000 FEET WITH NO
SIGNIFICANT WEATHER AND/OR OBSTRUCTIONS TO VISIBILITY.


SDZ001>005-009-010-012>017-170000-
NORTHWEST AND NORTH CENTRAL SOUTH DAKOTA

CITY           SKY/WX    TMP DP  RH WIND       PRES   REMARKS
BUFFALO          N/A     34  23  64 NE14      30.02R WCI  25
FAITH            N/A     38  24  57 NE16      30.09R
MOBRIDGE       MOSUNNY   39  23  52 N16       30.10R
$$

SDZ012>016-024>037-041>051-057-063-072>074-170000-
SOUTHWEST AND SOUTH CENTRAL SOUTH DAKOTA

CITY           SKY/WX    TMP DP  RH WIND       PRES   REMARKS
RAPID CTY ARPT CLOUDY    43  26  51 NE13      30.03R
PIERRE         CLOUDY    37  25  61 NE16      30.08R
CUSTER         CLOUDY    36  27  69 VRB7      29.96R
ELLSWORTH AFB  CLOUDY    43  26  51 NE13      30.02R
PHILIP         CLOUDY    37  26  64 NE13      30.09R
PINE RIDGE     PTSUNNY   43  30  60 NE12      30.02R
WINNER         CLOUDY    34  25  69 N21       30.07R WCI  22
$$

SDZ004>011-016>023-039-040-170000-
NORTHEAST SOUTH DAKOTA

CITY           SKY/WX    TMP DP  RH WIND       PRES   REMARKS
ABERDEEN       CLOUDY    32  23  69 N20G26    30.10R WCI  20
WATERTOWN      CLOUDY    28  25  88 N23G33    29.99R FOG     WCI  14
SISSETON         N/A     32  25  75 NE18      30.07R WCI  20
$$

SDZ017-020-022-023-036>040-048>070-170000-
SOUTHEAST SOUTH DAKOTA

CITY           SKY/WX    TMP DP  RH WIND       PRES   REMARKS
SIOUX FALLS    CLOUDY    32  28  85 N21G31    29.88R WCI  20
HURON          CLOUDY    32  26  78 N17       30.06R WCI  21
CHAMBERLAIN      N/A     33  27  78 N24G30    30.07R WCI  20
MITCHELL       CLOUDY    35  26  69 N26G36    30.02R WCI  22
YANKTON        CLOUDY    34  30  86 NW26G32   29.93R WCI  21
$$

ABBREVIATIONS USED IN REMARKS
   TC - TEMPERATURE IN CELSIUS
  WCI - WIND CHILL INDEX
   HX - HEAT INDEX
  VSB - VISIBILITY




USA.gov is the U.S. government's official web portal to all federal, state and local government web resources and services.